Private Wetterstation Wechselburg
Wetterdaten: Sonntag, 18.07.2021
Datum Zeit Temp. +2m Bodentemp. Temp.+5cm Temp. Wind Windchill X Diff Temp. Feuchte +2m Feuchte +5cm Luftdruck Regen Wind Richtung Richtung Sonnenschein Taupunkt Windchill Windben
18.07.2021 00:04 18,0 C 21,7 C 17,3 C 17,6 C 16,8 C 0,0 C 84 % 92 % 1016,0 hPa 0,0 l/m 0,0 km/h (0 Bft) O-NO 67 0 min 15,3 C 16,8 C 0,0 km/h (0 Bft)
18.07.2021 00:09 17,8 C 21,7 C 17,1 C 17,4 C 16,6 C 0,0 C 84 % 92 % 1016,0 hPa 0,0 l/m 0,0 km/h (0 Bft) O-NO 67 0 min 15,1 C 16,6 C 0,0 km/h (0 Bft)
18.07.2021 00:14 17,6 C 21,7 C 16,9 C 17,2 C 16,4 C 0,0 C 85 % 93 % 1016,4 hPa 0,0 l/m 0,0 km/h (0 Bft) O-NO 67 0 min 15,0 C 16,4 C 0,0 km/h (0 Bft)
18.07.2021 00:19 17,5 C 21,7 C 16,8 C 17,1 C 16,3 C 0,0 C 85 % 93 % 1016,4 hPa 0,0 l/m 0,0 km/h (0 Bft) O-NO 67 0 min 14,9 C 16,3 C 0,0 km/h (0 Bft)
18.07.2021 00:24 17,3 C 21,6 C 16,7 C 16,9 C 16,1 C 0,0 C 85 % 93 % 1016,4 hPa 0,0 l/m 0,0 km/h (0 Bft) O-NO 67 0 min 14,8 C 16,1 C 0,0 km/h (0 Bft)
18.07.2021 00:29 17,3 C 21,6 C 16,7 C 16,9 C 16,0 C 0,0 C 85 % 93 % 1016,4 hPa 0,0 l/m 0,0 km/h (0 Bft) O-NO 67 0 min 14,8 C 16,0 C 0,0 km/h (0 Bft)
18.07.2021 00:34 17,0 C 21,6 C 16,6 C 16,6 C 15,9 C 0,0 C 86 % 93 % 1016,5 hPa 0,0 l/m 0,0 km/h (0 Bft) O-NO 67 0 min 14,6 C 15,9 C 0,0 km/h (0 Bft)
18.07.2021 00:39 16,9 C 21,6 C 16,5 C 16,5 C 15,8 C 0,0 C 86 % 93 % 1016,5 hPa 0,0 l/m 0,0 km/h (0 Bft) O-NO 67 0 min 14,5 C 15,8 C 0,0 km/h (0 Bft)
18.07.2021 00:44 16,8 C 21,6 C 16,5 C 16,5 C 15,8 C 0,0 C 86 % 93 % 1016,5 hPa 0,0 l/m 0,0 km/h (0 Bft) O-NO 67 0 min 14,4 C 15,8 C 0,0 km/h (0 Bft)
18.07.2021 00:49 16,7 C 21,6 C 16,4 C 16,4 C 15,8 C 0,0 C 86 % 93 % 1016,5 hPa 0,0 l/m 0,0 km/h (0 Bft) O-NO 67 0 min 14,3 C 15,8 C 0,0 km/h (0 Bft)
18.07.2021 00:54 16,5 C 21,6 C 16,3 C 16,2 C 15,7 C 0,0 C 86 % 94 % 1016,8 hPa 0,0 l/m 0,0 km/h (0 Bft) O-NO 67 0 min 14,1 C 15,7 C 0,0 km/h (0 Bft)
18.07.2021 00:59 16,4 C 21,6 C 16,2 C 16,1 C 15,6 C 0,0 C 86 % 94 % 1016,8 hPa 0,0 l/m 0,0 km/h (0 Bft) O-NO 67 0 min 14,1 C 15,6 C 0,0 km/h (0 Bft)
18.07.2021 01:04 16,3 C 21,6 C 16,1 C 16,0 C 15,5 C 0,0 C 86 % 94 % 1016,8 hPa 0,0 l/m 0,0 km/h (0 Bft) O-NO 67 0 min 14,0 C 15,5 C 0,0 km/h (0 Bft)
18.07.2021 01:09 16,3 C 21,5 C 16,1 C 16,0 C 15,5 C 0,0 C 86 % 94 % 1016,8 hPa 0,0 l/m 0,0 km/h (0 Bft) O-NO 67 0 min 14,0 C 15,5 C 0,0 km/h (0 Bft)
18.07.2021 01:14 16,0 C 21,5 C 16,0 C 15,8 C 15,5 C 0,0 C 86 % 93 % 1016,8 hPa 0,0 l/m 0,0 km/h (0 Bft) O-NO 67 0 min 13,7 C 15,5 C 0,0 km/h (0 Bft)
18.07.2021 01:19 16,0 C 21,5 C 16,0 C 15,8 C 15,4 C 0,0 C 86 % 93 % 1016,8 hPa 0,0 l/m 0,0 km/h (0 Bft) O-NO 67 0 min 13,7 C 15,4 C 0,0 km/h (0 Bft)
18.07.2021 01:24 15,9 C 21,6 C 15,9 C 15,7 C 15,4 C 0,0 C 86 % 93 % 1016,8 hPa 0,0 l/m 0,0 km/h (0 Bft) O-NO 67 0 min 13,6 C 15,4 C 0,0 km/h (0 Bft)
18.07.2021 01:29 15,8 C 21,6 C 15,9 C 15,6 C 15,3 C 0,0 C 86 % 93 % 1016,8 hPa 0,0 l/m 0,0 km/h (0 Bft) O-NO 67 0 min 13,5 C 15,3 C 0,0 km/h (0 Bft)
18.07.2021 01:34 15,6 C 21,6 C 15,9 C 15,5 C 15,3 C 0,0 C 87 % 93 % 1016,8 hPa 0,0 l/m 0,0 km/h (0 Bft) O-NO 67 0 min 13,4 C 15,3 C 0,0 km/h (0 Bft)
18.07.2021 01:39 15,6 C 21,6 C 15,9 C 15,5 C 15,3 C 0,0 C 87 % 93 % 1016,8 hPa 0,0 l/m 0,0 km/h (0 Bft) O-NO 67 0 min 13,4 C 15,3 C 0,0 km/h (0 Bft)
18.07.2021 01:44 15,5 C 21,6 C 15,8 C 15,4 C 15,2 C 0,0 C 87 % 93 % 1016,8 hPa 0,0 l/m 0,0 km/h (0 Bft) O-NO 67 0 min 13,3 C 15,2 C 0,0 km/h (0 Bft)
18.07.2021 01:49 15,5 C 21,5 C 15,7 C 15,4 C 15,2 C 0,0 C 87 % 94 % 1016,8 hPa 0,0 l/m 0,0 km/h (0 Bft) O-NO 67 0 min 13,3 C 15,2 C 0,0 km/h (0 Bft)
18.07.2021 01:54 15,3 C 21,5 C 15,6 C 15,3 C 15,2 C 0,0 C 87 % 94 % 1016,8 hPa 0,0 l/m 0,0 km/h (0 Bft) O-NO 67 0 min 13,1 C 15,2 C 0,0 km/h (0 Bft)
18.07.2021 01:59 15,2 C 21,5 C 15,6 C 15,2 C 15,1 C 0,0 C 87 % 94 % 1016,8 hPa 0,0 l/m 0,0 km/h (0 Bft) O-NO 67 0 min 13,0 C 15,1 C 0,0 km/h (0 Bft)
18.07.2021 02:04 15,2 C 21,5 C 15,6 C 15,1 C 15,0 C 0,0 C 87 % 94 % 1016,8 hPa 0,0 l/m 0,0 km/h (0 Bft) O-NO 67 0 min 13,0 C 15,0 C 0,0 km/h (0 Bft)
18.07.2021 02:09 15,1 C 21,5 C 15,5 C 15,1 C 15,0 C 0,0 C 87 % 94 % 1016,8 hPa 0,0 l/m 0,0 km/h (0 Bft) O-NO 67 0 min 13,0 C 15,0 C 0,0 km/h (0 Bft)
18.07.2021 02:14 15,0 C 21,5 C 15,5 C 15,0 C 15,0 C 0,0 C 87 % 94 % 1016,5 hPa 0,0 l/m 0,0 km/h (0 Bft) O-NO 67 0 min 12,9 C 15,0 C 0,0 km/h (0 Bft)
18.07.2021 02:19 14,9 C 21,5 C 15,5 C 14,9 C 14,9 C 0,0 C 87 % 94 % 1016,5 hPa 0,0 l/m 0,0 km/h (0 Bft) O-NO 67 0 min 12,8 C 14,9 C 0,0 km/h (0 Bft)
18.07.2021 02:24 14,8 C 21,5 C 15,5 C 14,9 C 14,9 C 0,1 C 87 % 94 % 1016,5 hPa 0,0 l/m 0,0 km/h (0 Bft) O-NO 67 0 min 12,7 C 14,9 C 0,0 km/h (0 Bft)
18.07.2021 02:29 14,8 C 21,4 C 15,4 C 14,9 C 14,9 C 0,1 C 87 % 94 % 1016,5 hPa 0,0 l/m 0,0 km/h (0 Bft) O-NO 67 0 min 12,7 C 14,9 C 0,0 km/h (0 Bft)
18.07.2021 02:34 14,7 C 21,4 C 15,4 C 14,9 C 14,9 C 0,2 C 87 % 94 % 1016,8 hPa 0,0 l/m 0,0 km/h (0 Bft) O-NO 67 0 min 12,6 C 14,9 C 0,0 km/h (0 Bft)
18.07.2021 02:39 14,6 C 21,4 C 15,4 C 14,8 C 14,8 C 0,2 C 87 % 94 % 1016,8 hPa 0,0 l/m 0,0 km/h (0 Bft) O-NO 67 0 min 12,5 C 14,8 C 0,0 km/h (0 Bft)
18.07.2021 02:44 14,6 C 21,4 C 15,3 C 14,8 C 14,8 C 0,2 C 87 % 94 % 1016,8 hPa 0,0 l/m 0,0 km/h (0 Bft) O-NO 67 0 min 12,5 C 14,8 C 0,0 km/h (0 Bft)
18.07.2021 02:49 14,5 C 21,4 C 15,3 C 14,8 C 14,8 C 0,3 C 87 % 94 % 1016,8 hPa 0,0 l/m 0,0 km/h (0 Bft) O-NO 67 0 min 12,4 C 14,8 C 0,0 km/h (0 Bft)
18.07.2021 02:54 14,4 C 21,4 C 15,2 C 14,8 C 14,8 C 0,4 C 87 % 94 % 1016,6 hPa 0,0 l/m 0,0 km/h (0 Bft) O-NO 67 0 min 12,3 C 14,8 C 0,0 km/h (0 Bft)
18.07.2021 02:59 14,4 C 21,4 C 15,2 C 14,8 C 14,8 C 0,4 C 87 % 94 % 1016,6 hPa 0,0 l/m 0,0 km/h (0 Bft) O-NO 67 0 min 12,3 C 14,8 C 0,0 km/h (0 Bft)
18.07.2021 03:04 14,4 C 21,4 C 15,2 C 14,7 C 14,7 C 0,3 C 87 % 94 % 1016,6 hPa 0,0 l/m 0,0 km/h (0 Bft) O-NO 67 0 min 12,3 C 14,7 C 0,0 km/h (0 Bft)
18.07.2021 03:09 14,3 C 21,3 C 15,1 C 14,7 C 14,7 C 0,4 C 87 % 94 % 1016,6 hPa 0,0 l/m 0,0 km/h (0 Bft) O-NO 67 0 min 12,2 C 14,7 C 0,0 km/h (0 Bft)
18.07.2021 03:14 14,3 C 21,3 C 15,2 C 14,7 C 14,7 C 0,4 C 87 % 94 % 1016,8 hPa 0,0 l/m 0,0 km/h (0 Bft) O-NO 67 0 min 12,2 C 14,7 C 0,0 km/h (0 Bft)
18.07.2021 03:19 14,3 C 21,3 C 15,2 C 14,8 C 14,8 C 0,5 C 87 % 94 % 1016,8 hPa 0,0 l/m 0,2 km/h (0 Bft) O-NO 67 0 min 12,2 C 14,8 C 0,0 km/h (0 Bft)
18.07.2021 03:24 14,2 C 21,3 C 15,1 C 14,7 C 14,7 C 0,5 C 87 % 94 % 1016,8 hPa 0,0 l/m 0,2 km/h (0 Bft) O-NO 67 0 min 12,1 C 14,7 C 0,0 km/h (0 Bft)
18.07.2021 03:29 14,3 C 21,3 C 15,1 C 14,8 C 14,8 C 0,5 C 87 % 94 % 1016,8 hPa 0,0 l/m 0,0 km/h (0 Bft) O-NO 67 0 min 12,2 C 14,8 C 0,0 km/h (0 Bft)
18.07.2021 03:34 14,2 C 21,3 C 15,2 C 14,9 C 14,9 C 0,7 C 87 % 94 % 1016,8 hPa 0,0 l/m 0,0 km/h (0 Bft) O-NO 67 0 min 12,1 C 14,9 C 0,0 km/h (0 Bft)
18.07.2021 03:39 14,2 C 21,3 C 15,2 C 14,9 C 14,9 C 0,7 C 87 % 94 % 1016,8 hPa 0,0 l/m 0,0 km/h (0 Bft) O-NO 67 0 min 12,1 C 14,9 C 0,0 km/h (0 Bft)
18.07.2021 03:44 14,1 C 21,3 C 15,2 C 14,8 C 14,8 C 0,7 C 87 % 94 % 1016,8 hPa 0,0 l/m 0,0 km/h (0 Bft) O-NO 67 0 min 12,0 C 14,8 C 0,0 km/h (0 Bft)
18.07.2021 03:49 14,1 C 21,3 C 15,2 C 14,8 C 14,8 C 0,7 C 87 % 94 % 1016,8 hPa 0,0 l/m 0,0 km/h (0 Bft) NO 45 0 min 12,0 C 14,8 C 0,0 km/h (0 Bft)
18.07.2021 03:54 14,1 C 21,3 C 15,3 C 14,8 C 14,8 C 0,7 C 87 % 94 % 1016,8 hPa 0,0 l/m 0,0 km/h (0 Bft) N-NO 22 0 min 12,0 C 14,8 C 0,0 km/h (0 Bft)
18.07.2021 03:59 14,1 C 21,2 C 15,2 C 14,7 C 14,7 C 0,6 C 87 % 94 % 1016,8 hPa 0,0 l/m 0,0 km/h (0 Bft) NO 45 0 min 12,0 C 14,7 C 0,0 km/h (0 Bft)
18.07.2021 04:04 14,1 C 21,2 C 15,3 C 14,8 C 14,8 C 0,7 C 87 % 94 % 1016,8 hPa 0,0 l/m 0,0 km/h (0 Bft) O-NO 67 0 min 12,0 C 14,8 C 0,0 km/h (0 Bft)
18.07.2021 04:09 14,0 C 21,2 C 15,1 C 14,7 C 14,7 C 0,7 C 87 % 94 % 1016,8 hPa 0,0 l/m 0,0 km/h (0 Bft) O-NO 67 0 min 11,9 C 14,7 C 0,0 km/h (0 Bft)
18.07.2021 04:14 14,0 C 21,2 C 15,2 C 14,7 C 14,7 C 0,7 C 87 % 94 % 1016,8 hPa 0,0 l/m 0,0 km/h (0 Bft) O-NO 67 0 min 11,9 C 14,7 C 0,0 km/h (0 Bft)
18.07.2021 04:19 14,1 C 21,2 C 15,1 C 14,7 C 14,7 C 0,6 C 87 % 94 % 1016,8 hPa 0,0 l/m 0,0 km/h (0 Bft) O-NO 67 0 min 12,0 C 14,7 C 0,0 km/h (0 Bft)
18.07.2021 04:24 14,1 C 21,2 C 15,2 C 14,8 C 14,8 C 0,7 C 87 % 94 % 1016,8 hPa 0,0 l/m 0,0 km/h (0 Bft) O-NO 67 0 min 12,0 C 14,8 C 0,0 km/h (0 Bft)
18.07.2021 04:29 14,0 C 21,2 C 15,3 C 14,9 C 14,9 C 0,9 C 87 % 94 % 1016,8 hPa 0,0 l/m 0,0 km/h (0 Bft) O 90 0 min 11,9 C 14,9 C 0,0 km/h (0 Bft)
18.07.2021 04:34 14,0 C 21,2 C 15,4 C 15,0 C 15,0 C 1,0 C 87 % 94 % 1017,1 hPa 0,0 l/m 0,0 km/h (0 Bft) O 90 0 min 11,9 C 15,0 C 0,0 km/h (0 Bft)
18.07.2021 04:39 14,0 C 21,2 C 15,5 C 15,2 C 15,2 C 1,2 C 87 % 94 % 1017,1 hPa 0,0 l/m 0,0 km/h (0 Bft) O-NO 67 0 min 11,9 C 15,2 C 0,0 km/h (0 Bft)
18.07.2021 04:44 14,1 C 21,2 C 15,5 C 15,3 C 15,3 C 1,2 C 87 % 94 % 1017,1 hPa 0,0 l/m 0,0 km/h (0 Bft) O 90 0 min 12,0 C 15,3 C 0,0 km/h (0 Bft)
18.07.2021 04:49 14,1 C 21,2 C 15,5 C 15,3 C 15,3 C 1,2 C 87 % 94 % 1017,1 hPa 0,0 l/m 0,0 km/h (0 Bft) O 90 0 min 12,0 C 15,3 C 0,0 km/h (0 Bft)
18.07.2021 04:54 14,2 C 21,2 C 15,6 C 15,3 C 15,3 C 1,1 C 87 % 94 % 1016,9 hPa 0,0 l/m 0,0 km/h (0 Bft) O-NO 67 0 min 12,1 C 15,3 C 0,0 km/h (0 Bft)
18.07.2021 04:59 14,3 C 21,2 C 15,6 C 15,3 C 15,3 C 1,0 C 87 % 94 % 1016,9 hPa 0,0 l/m 0,0 km/h (0 Bft) SO 135 0 min 12,2 C 15,3 C 0,0 km/h (0 Bft)
18.07.2021 05:04 14,3 C 21,2 C 15,7 C 15,3 C 15,3 C 1,0 C 87 % 94 % 1016,9 hPa 0,0 l/m 0,0 km/h (0 Bft) S-SW 202 0 min 12,2 C 15,3 C 0,0 km/h (0 Bft)
18.07.2021 05:09 14,3 C 21,2 C 15,7 C 15,3 C 15,3 C 1,0 C 87 % 94 % 1016,9 hPa 0,0 l/m 0,2 km/h (0 Bft) NW 315 0 min 12,2 C 15,3 C 0,0 km/h (0 Bft)
18.07.2021 05:14 14,2 C 21,1 C 15,7 C 15,4 C 15,4 C 1,2 C 87 % 94 % 1017,0 hPa 0,0 l/m 0,2 km/h (0 Bft) S 180 0 min 12,1 C 15,4 C 0,0 km/h (0 Bft)
18.07.2021 05:19 14,3 C 21,1 C 15,7 C 15,5 C 15,5 C 1,2 C 87 % 94 % 1017,0 hPa 0,0 l/m 0,0 km/h (0 Bft) S 180 0 min 12,2 C 15,5 C 0,0 km/h (0 Bft)
18.07.2021 05:24 14,3 C 21,1 C 15,7 C 15,5 C 15,5 C 1,2 C 87 % 94 % 1017,0 hPa 0,0 l/m 0,0 km/h (0 Bft) NW 315 0 min 12,2 C 15,5 C 0,0 km/h (0 Bft)
18.07.2021 05:29 14,3 C 21,1 C 15,7 C 15,7 C 15,7 C 1,4 C 87 % 94 % 1017,0 hPa 0,0 l/m 0,0 km/h (0 Bft) SW 225 5 min 12,2 C 15,7 C 0,0 km/h (0 Bft)
18.07.2021 05:34 14,3 C 21,1 C 15,8 C 15,7 C 15,7 C 1,4 C 87 % 94 % 1017,3 hPa 0,0 l/m 0,0 km/h (0 Bft) SW 225 5 min 12,2 C 15,7 C 0,0 km/h (0 Bft)
18.07.2021 05:39 14,3 C 21,1 C 15,9 C 15,8 C 15,8 C 1,5 C 87 % 94 % 1017,3 hPa 0,0 l/m 0,0 km/h (0 Bft) SW 225 5 min 12,2 C 15,8 C 0,0 km/h (0 Bft)
18.07.2021 05:44 14,3 C 21,1 C 15,9 C 16,0 C 16,0 C 1,7 C 87 % 94 % 1017,3 hPa 0,0 l/m 0,0 km/h (0 Bft) NW 315 5 min 12,2 C 16,0 C 0,0 km/h (0 Bft)
18.07.2021 05:49 14,3 C 21,1 C 16,0 C 16,2 C 16,2 C 1,9 C 87 % 94 % 1017,3 hPa 0,0 l/m 0,0 km/h (0 Bft) NW 315 5 min 12,2 C 16,2 C 0,0 km/h (0 Bft)
18.07.2021 05:54 14,3 C 21,1 C 16,0 C 16,4 C 16,4 C 2,1 C 87 % 94 % 1017,6 hPa 0,0 l/m 0,0 km/h (0 Bft) SW 225 5 min 12,2 C 16,4 C 0,0 km/h (0 Bft)
18.07.2021 05:59 14,3 C 21,1 C 16,0 C 16,4 C 16,4 C 2,1 C 87 % 94 % 1017,6 hPa 0,0 l/m 0,3 km/h (0 Bft) W-SW 247 5 min 12,2 C 16,4 C 0,0 km/h (0 Bft)
18.07.2021 06:04 14,3 C 21,1 C 16,1 C 16,4 C 16,4 C 2,1 C 87 % 94 % 1017,6 hPa 0,0 l/m 0,3 km/h (0 Bft) W 270 5 min 12,2 C 16,4 C 0,0 km/h (0 Bft)
18.07.2021 06:09 14,4 C 21,1 C 16,1 C 16,5 C 16,5 C 2,1 C 87 % 94 % 1017,6 hPa 0,0 l/m 0,2 km/h (0 Bft) SW 225 5 min 12,3 C 16,5 C 0,0 km/h (0 Bft)
18.07.2021 06:14 14,4 C 21,0 C 16,1 C 16,7 C 16,7 C 2,3 C 87 % 94 % 1017,6 hPa 0,0 l/m 0,3 km/h (0 Bft) S-SW 202 5 min 12,3 C 16,7 C 2,9 km/h (1 Bft)
18.07.2021 06:19 14,4 C 21,0 C 16,1 C 16,7 C 16,7 C 2,3 C 87 % 94 % 1017,6 hPa 0,0 l/m 0,6 km/h (0 Bft) SW 225 5 min 12,3 C 16,7 C 2,6 km/h (1 Bft)
18.07.2021 06:24 14,4 C 21,0 C 16,1 C 16,9 C 16,9 C 2,5 C 87 % 94 % 1017,6 hPa 0,0 l/m 0,6 km/h (0 Bft) W-NW 292 5 min 12,3 C 16,9 C 0,0 km/h (0 Bft)
18.07.2021 06:29 14,4 C 21,0 C 16,1 C 16,9 C 16,9 C 2,5 C 87 % 94 % 1017,6 hPa 0,0 l/m 0,3 km/h (0 Bft) W-NW 292 5 min 12,3 C 16,9 C 0,0 km/h (0 Bft)
18.07.2021 06:34 14,4 C 21,0 C 16,1 C 17,1 C 17,1 C 2,7 C 87 % 94 % 1017,8 hPa 0,0 l/m 0,6 km/h (0 Bft) W 270 5 min 12,3 C 17,1 C 0,0 km/h (0 Bft)
18.07.2021 06:39 14,5 C 21,0 C 16,2 C 17,2 C 17,2 C 2,7 C 87 % 94 % 1017,8 hPa 0,0 l/m 1,0 km/h (0 Bft) W-SW 247 5 min 12,4 C 17,2 C 0,0 km/h (0 Bft)
18.07.2021 06:44 14,6 C 21,0 C 16,3 C 17,3 C 17,3 C 2,7 C 87 % 94 % 1017,8 hPa 0,0 l/m 0,3 km/h (0 Bft) SW 225 5 min 12,5 C 17,3 C 0,0 km/h (0 Bft)
18.07.2021 06:49 14,7 C 21,0 C 16,3 C 17,5 C 17,5 C 2,8 C 87 % 94 % 1017,8 hPa 0,0 l/m 0,0 km/h (0 Bft) W-SW 247 5 min 12,6 C 17,5 C 0,0 km/h (0 Bft)
18.07.2021 06:54 14,7 C 21,0 C 16,4 C 17,6 C 17,6 C 2,9 C 87 % 94 % 1017,8 hPa 0,0 l/m 0,5 km/h (0 Bft) W 270 5 min 12,6 C 17,6 C 2,7 km/h (1 Bft)
18.07.2021 06:59 14,7 C 20,9 C 16,4 C 17,7 C 17,7 C 3,0 C 87 % 94 % 1017,8 hPa 0,0 l/m 0,5 km/h (0 Bft) S-SW 202 5 min 12,6 C 17,7 C 0,0 km/h (0 Bft)
18.07.2021 07:04 14,9 C 20,9 C 16,6 C 18,0 C 18,0 C 3,1 C 87 % 94 % 1017,8 hPa 0,0 l/m 0,3 km/h (0 Bft) W-NW 292 5 min 12,8 C 18,0 C 2,7 km/h (1 Bft)
18.07.2021 07:09 14,8 C 20,9 C 16,6 C 18,1 C 18,1 C 3,3 C 87 % 94 % 1017,8 hPa 0,0 l/m 0,3 km/h (0 Bft) W 270 5 min 12,7 C 18,1 C 0,0 km/h (0 Bft)
18.07.2021 07:14 14,9 C 20,9 C 16,7 C 18,5 C 18,5 C 3,6 C 87 % 94 % 1017,8 hPa 0,0 l/m 0,3 km/h (0 Bft) SW 225 5 min 12,8 C 18,5 C 0,0 km/h (0 Bft)
18.07.2021 07:19 15,1 C 20,9 C 16,8 C 18,8 C 18,8 C 3,7 C 87 % 93 % 1017,8 hPa 0,0 l/m 0,0 km/h (0 Bft) SW 225 5 min 13,0 C 18,8 C 2,1 km/h (1 Bft)
18.07.2021 07:24 15,1 C 20,8 C 16,9 C 19,0 C 19,0 C 3,9 C 87 % 93 % 1017,8 hPa 0,0 l/m 0,6 km/h (0 Bft) S-SW 202 5 min 13,0 C 19,0 C 0,0 km/h (0 Bft)
18.07.2021 07:29 15,2 C 20,8 C 17,0 C 19,4 C 19,4 C 4,2 C 87 % 93 % 1017,8 hPa 0,0 l/m 0,8 km/h (0 Bft) W-SW 247 5 min 13,0 C 19,4 C 0,0 km/h (0 Bft)
18.07.2021 07:34 15,3 C 20,8 C 17,1 C 19,6 C 19,6 C 4,3 C 87 % 93 % 1017,9 hPa 0,0 l/m 0,3 km/h (0 Bft) W 270 5 min 13,1 C 19,6 C 2,7 km/h (1 Bft)
18.07.2021 09:13 16,3 C 20,6 C 17,5 C 20,8 C 20,8 C 4,5 C 87 % 92 % 1017,9 hPa 0,0 l/m 0,3 km/h (0 Bft) SW 225 60 min 14,1 C 20,8 C 0,0 km/h (0 Bft)
18.07.2021 09:15 16,5 C 20,6 C 17,6 C 20,6 C 20,6 C 4,1 C 87 % 92 % 1018,1 hPa 0,0 l/m 0,2 km/h (0 Bft) S 180 2 min 14,3 C 20,6 C 0,0 km/h (0 Bft)
18.07.2021 09:20 16,6 C 20,6 C 17,5 C 20,5 C 20,5 C 3,9 C 87 % 92 % 1018,1 hPa 0,0 l/m 0,2 km/h (0 Bft) W 270 5 min 14,4 C 20,5 C 0,0 km/h (0 Bft)
18.07.2021 09:25 16,8 C 20,6 C 17,7 C 20,2 C 20,2 C 3,4 C 87 % 92 % 1018,1 hPa 0,0 l/m 0,2 km/h (0 Bft) SW 225 5 min 14,6 C 20,2 C 0,0 km/h (0 Bft)
18.07.2021 09:30 16,8 C 20,6 C 17,7 C 21,4 C 21,4 C 4,6 C 87 % 92 % 1018,1 hPa 0,0 l/m 0,2 km/h (0 Bft) SW 225 5 min 14,6 C 21,4 C 0,0 km/h (0 Bft)
18.07.2021 09:35 17,1 C 20,5 C 17,9 C 23,7 C 23,7 C 6,6 C 87 % 92 % 1017,9 hPa 0,0 l/m 0,3 km/h (0 Bft) S-SW 202 5 min 14,9 C 23,7 C 1,8 km/h (1 Bft)
18.07.2021 09:40 17,5 C 20,4 C 18,0 C 23,4 C 23,4 C 5,9 C 87 % 92 % 1017,9 hPa 0,0 l/m 0,5 km/h (0 Bft) W 270 5 min 15,3 C 23,4 C 1,6 km/h (1 Bft)
18.07.2021 09:45 17,7 C 20,4 C 18,0 C 22,4 C 22,4 C 4,7 C 87 % 92 % 1017,9 hPa 0,0 l/m 0,6 km/h (0 Bft) W 270 5 min 15,5 C 22,4 C 3,4 km/h (1 Bft)
18.07.2021 09:50 17,8 C 20,4 C 18,1 C 21,8 C 21,8 C 4,0 C 87 % 92 % 1017,9 hPa 0,0 l/m 0,5 km/h (0 Bft) SW 225 5 min 15,6 C 21,8 C 0,0 km/h (0 Bft)
18.07.2021 09:55 18,0 C 20,4 C 18,2 C 21,9 C 21,9 C 3,9 C 87 % 92 % 1017,9 hPa 0,0 l/m 0,5 km/h (0 Bft) NW 315 5 min 15,8 C 21,9 C 0,0 km/h (0 Bft)
18.07.2021 10:00 18,2 C 20,3 C 18,5 C 22,4 C 22,4 C 4,2 C 87 % 92 % 1017,9 hPa 0,0 l/m 0,5 km/h (0 Bft) SW 225 5 min 16,0 C 22,4 C 1,8 km/h (1 Bft)
18.07.2021 10:05 18,4 C 20,3 C 18,5 C 22,6 C 22,6 C 4,2 C 86 % 92 % 1017,9 hPa 0,0 l/m 0,6 km/h (0 Bft) SW 225 5 min 16,0 C 22,6 C 0,0 km/h (0 Bft)
18.07.2021 10:11 18,6 C 20,3 C 18,6 C 22,7 C 22,7 C 4,1 C 86 % 92 % 1017,9 hPa 0,0 l/m 0,3 km/h (0 Bft) N 0 6 min 16,2 C 22,7 C 1,9 km/h (1 Bft)
18.07.2021 10:26 18,9 C 20,2 C 18,6 C 22,4 C 22,4 C 3,5 C 85 % 91 % 1017,9 hPa 0,0 l/m 0,3 km/h (0 Bft) SW 225 15 min 16,3 C 22,4 C 0,0 km/h (0 Bft)
18.07.2021 10:30 19,0 C 20,1 C 18,7 C 22,3 C 22,3 C 3,3 C 85 % 91 % 1017,9 hPa 0,0 l/m 0,0 km/h (0 Bft) SW 225 4 min 16,4 C 22,3 C 0,0 km/h (0 Bft)
18.07.2021 10:35 19,1 C 20,1 C 18,8 C 22,9 C 22,9 C 3,8 C 85 % 91 % 1018,1 hPa 0,0 l/m 0,3 km/h (0 Bft) SW 225 5 min 16,5 C 22,9 C 0,0 km/h (0 Bft)
18.07.2021 10:40 19,2 C 20,1 C 19,0 C 23,7 C 23,7 C 4,5 C 85 % 91 % 1018,1 hPa 0,0 l/m 0,6 km/h (0 Bft) S 180 5 min 16,6 C 23,7 C 0,0 km/h (0 Bft)
18.07.2021 10:45 19,2 C 20,1 C 19,1 C 23,7 C 23,7 C 4,5 C 84 % 91 % 1018,1 hPa 0,0 l/m 0,5 km/h (0 Bft) W-SW 247 5 min 16,4 C 23,7 C 0,0 km/h (0 Bft)
18.07.2021 10:50 19,2 C 20,0 C 19,0 C 23,2 C 23,2 C 4,0 C 84 % 91 % 1018,1 hPa 0,0 l/m 0,6 km/h (0 Bft) S 180 5 min 16,4 C 23,2 C 3,5 km/h (1 Bft)
18.07.2021 10:55 19,2 C 20,0 C 19,1 C 23,1 C 23,1 C 3,9 C 84 % 90 % 1017,8 hPa 0,0 l/m 1,0 km/h (0 Bft) SW 225 5 min 16,4 C 23,1 C 8,0 km/h (2 Bft)
18.07.2021 11:00 19,3 C 20,0 C 19,1 C 23,0 C 23,0 C 3,7 C 83 % 90 % 1017,8 hPa 0,0 l/m 1,1 km/h (1 Bft) W 270 5 min 16,3 C 23,0 C 2,6 km/h (1 Bft)
18.07.2021 11:05 19,3 C 19,9 C 19,3 C 24,4 C 24,4 C 5,1 C 83 % 90 % 1017,8 hPa 0,0 l/m 1,4 km/h (1 Bft) W 270 5 min 16,3 C 24,4 C 3,5 km/h (1 Bft)
18.07.2021 11:10 19,5 C 19,9 C 19,4 C 24,5 C 24,5 C 5,0 C 83 % 89 % 1017,8 hPa 0,0 l/m 1,4 km/h (1 Bft) SW 225 5 min 16,5 C 24,5 C 1,6 km/h (1 Bft)
18.07.2021 11:15 19,6 C 19,9 C 19,5 C 24,3 C 24,3 C 4,7 C 83 % 89 % 1018,2 hPa 0,0 l/m 1,0 km/h (0 Bft) SW 225 5 min 16,6 C 24,3 C 0,0 km/h (0 Bft)
18.07.2021 11:20 19,7 C 19,9 C 19,5 C 24,2 C 24,2 C 4,5 C 82 % 88 % 1018,2 hPa 0,0 l/m 0,8 km/h (0 Bft) NW 315 5 min 16,5 C 24,2 C 5,1 km/h (1 Bft)
18.07.2021 11:25 19,6 C 19,9 C 19,4 C 23,6 C 23,6 C 4,0 C 82 % 88 % 1018,2 hPa 0,0 l/m 1,0 km/h (0 Bft) SW 225 5 min 16,4 C 23,6 C 0,0 km/h (0 Bft)
18.07.2021 11:30 19,7 C 19,8 C 19,6 C 23,5 C 23,5 C 3,8 C 82 % 89 % 1018,2 hPa 0,0 l/m 1,6 km/h (1 Bft) W-NW 292 5 min 16,5 C 23,5 C 7,9 km/h (2 Bft)
18.07.2021 11:35 19,9 C 19,8 C 19,7 C 23,8 C 23,8 C 3,9 C 81 % 88 % 1018,1 hPa 0,0 l/m 1,4 km/h (1 Bft) SW 225 5 min 16,5 C 23,8 C 0,0 km/h (0 Bft)
18.07.2021 11:40 20,0 C 19,8 C 19,7 C 23,9 C 23,9 C 3,9 C 81 % 88 % 1018,1 hPa 0,0 l/m 1,6 km/h (1 Bft) SW 225 5 min 16,6 C 23,9 C 2,4 km/h (1 Bft)
18.07.2021 11:45 20,1 C 19,7 C 19,7 C 24,1 C 24,1 C 4,0 C 81 % 87 % 1018,1 hPa 0,0 l/m 1,6 km/h (1 Bft) S 180 5 min 16,7 C 24,1 C 8,7 km/h (2 Bft)
18.07.2021 11:50 20,0 C 19,8 C 19,8 C 23,8 C 23,8 C 3,8 C 80 % 86 % 1018,1 hPa 0,0 l/m 1,9 km/h (1 Bft) S-SW 202 5 min 16,4 C 23,8 C 5,5 km/h (1 Bft)
18.07.2021 11:55 20,3 C 19,7 C 19,8 C 24,7 C 24,7 C 4,4 C 80 % 87 % 1017,8 hPa 0,0 l/m 1,9 km/h (1 Bft) SW 225 5 min 16,7 C 24,7 C 1,9 km/h (1 Bft)
18.07.2021 12:00 20,3 C 19,7 C 19,9 C 24,9 C 24,9 C 4,6 C 80 % 87 % 1017,8 hPa 0,0 l/m 1,6 km/h (1 Bft) W 270 5 min 16,7 C 24,9 C 3,1 km/h (1 Bft)
18.07.2021 12:05 20,4 C 19,6 C 20,2 C 26,4 C 26,4 C 6,0 C 80 % 87 % 1017,8 hPa 0,0 l/m 1,6 km/h (1 Bft) W-SW 247 5 min 16,8 C 26,4 C 2,3 km/h (1 Bft)
18.07.2021 12:10 20,6 C 19,6 C 20,5 C 27,6 C 27,6 C 7,0 C 80 % 87 % 1017,8 hPa 0,0 l/m 1,6 km/h (1 Bft) S-SW 202 5 min 17,0 C 27,6 C 2,7 km/h (1 Bft)
18.07.2021 12:15 20,8 C 19,6 C 20,5 C 27,6 C 27,6 C 6,8 C 79 % 86 % 1017,9 hPa 0,0 l/m 1,8 km/h (1 Bft) SO 135 5 min 17,0 C 27,6 C 0,0 km/h (0 Bft)
18.07.2021 12:20 21,1 C 19,6 C 20,7 C 27,8 C 27,8 C 6,7 C 79 % 86 % 1017,9 hPa 0,0 l/m 1,6 km/h (1 Bft) SW 225 5 min 17,3 C 27,8 C 2,6 km/h (1 Bft)
18.07.2021 12:25 21,2 C 19,6 C 20,6 C 27,9 C 27,9 C 6,7 C 78 % 86 % 1017,9 hPa 0,0 l/m 1,1 km/h (1 Bft) SW 225 5 min 17,2 C 27,9 C 1,6 km/h (1 Bft)
18.07.2021 12:30 21,2 C 19,6 C 20,5 C 26,6 C 26,6 C 5,4 C 78 % 86 % 1017,9 hPa 0,0 l/m 1,1 km/h (1 Bft) SW 225 5 min 17,2 C 26,6 C 2,3 km/h (1 Bft)
18.07.2021 12:35 21,5 C 19,6 C 20,6 C 27,3 C 27,3 C 5,8 C 78 % 86 % 1017,8 hPa 0,0 l/m 1,0 km/h (0 Bft) W 270 5 min 17,5 C 27,3 C 2,1 km/h (1 Bft)
18.07.2021 12:40 21,7 C 19,6 C 20,7 C 27,0 C 27,0 C 5,3 C 77 % 86 % 1017,8 hPa 0,0 l/m 1,4 km/h (1 Bft) SW 225 5 min 17,5 C 27,0 C 1,9 km/h (1 Bft)
18.07.2021 12:45 22,0 C 19,6 C 21,0 C 28,3 C 28,3 C 6,3 C 77 % 86 % 1017,8 hPa 0,0 l/m 1,8 km/h (1 Bft) SW 225 5 min 17,8 C 28,3 C 2,4 km/h (1 Bft)
18.07.2021 12:50 22,4 C 19,6 C 21,1 C 28,5 C 28,5 C 6,1 C 76 % 86 % 1017,8 hPa 0,0 l/m 1,6 km/h (1 Bft) W 270 5 min 18,0 C 28,5 C 5,0 km/h (1 Bft)
18.07.2021 12:55 22,9 C 19,6 C 21,3 C 29,2 C 29,2 C 6,3 C 75 % 85 % 1017,6 hPa 0,0 l/m 1,3 km/h (1 Bft) NW 315 5 min 18,2 C 29,2 C 3,2 km/h (1 Bft)
18.07.2021 13:00 22,9 C 19,6 C 21,3 C 28,7 C 28,7 C 5,8 C 74 % 83 % 1017,6 hPa 0,0 l/m 1,8 km/h (1 Bft) W-SW 247 5 min 18,0 C 28,7 C 1,6 km/h (1 Bft)
18.07.2021 13:05 23,0 C 19,6 C 21,5 C 28,4 C 28,4 C 5,4 C 74 % 84 % 1017,6 hPa 0,0 l/m 1,6 km/h (1 Bft) SW 225 5 min 18,1 C 28,4 C 2,3 km/h (1 Bft)
18.07.2021 13:10 23,5 C 19,6 C 22,1 C 29,3 C 29,3 C 5,8 C 73 % 84 % 1017,6 hPa 0,0 l/m 1,3 km/h (1 Bft) W-SW 247 5 min 18,4 C 29,3 C 2,1 km/h (1 Bft)
18.07.2021 13:15 23,6 C 19,7 C 22,2 C 29,0 C 29,0 C 5,4 C 70 % 80 % 1017,4 hPa 0,0 l/m 1,9 km/h (1 Bft) SW 225 5 min 17,8 C 29,0 C 9,8 km/h (2 Bft)
18.07.2021 13:20 23,5 C 19,7 C 22,1 C 28,1 C 28,1 C 4,6 C 70 % 79 % 1017,4 hPa 0,0 l/m 2,1 km/h (1 Bft) W-SW 247 5 min 17,7 C 28,1 C 3,4 km/h (1 Bft)
18.07.2021 13:25 23,7 C 19,7 C 22,3 C 29,4 C 29,4 C 5,7 C 71 % 80 % 1017,4 hPa 0,0 l/m 1,6 km/h (1 Bft) S 180 5 min 18,1 C 29,4 C 3,1 km/h (1 Bft)
18.07.2021 13:30 24,1 C 19,7 C 22,5 C 30,2 C 30,2 C 6,1 C 71 % 80 % 1017,4 hPa 0,0 l/m 1,6 km/h (1 Bft) S 180 5 min 18,5 C 30,2 C 3,1 km/h (1 Bft)
18.07.2021 13:35 24,3 C 19,7 C 22,4 C 29,7 C 29,7 C 5,4 C 68 % 80 % 1017,4 hPa 0,0 l/m 1,8 km/h (1 Bft) W-SW 247 5 min 18,0 C 29,7 C 3,5 km/h (1 Bft)
18.07.2021 13:40 24,2 C 19,7 C 22,6 C 29,6 C 29,6 C 5,4 C 69 % 80 % 1017,4 hPa 0,0 l/m 2,1 km/h (1 Bft) S-SW 202 5 min 18,1 C 29,6 C 2,6 km/h (1 Bft)
18.07.2021 13:45 24,5 C 19,7 C 22,6 C 30,1 C 30,1 C 5,6 C 68 % 79 % 1017,4 hPa 0,0 l/m 1,6 km/h (1 Bft) W-NW 292 5 min 18,2 C 30,1 C 0,0 km/h (0 Bft)
18.07.2021 13:50 24,4 C 19,7 C 22,6 C 29,4 C 29,4 C 5,0 C 67 % 79 % 1017,4 hPa 0,0 l/m 1,3 km/h (1 Bft) S-SO 157 5 min 17,9 C 29,4 C 1,6 km/h (1 Bft)
18.07.2021 13:55 24,5 C 19,7 C 22,7 C 29,7 C 29,7 C 5,2 C 68 % 79 % 1017,4 hPa 0,0 l/m 1,6 km/h (1 Bft) SW 225 5 min 18,2 C 29,7 C 4,2 km/h (1 Bft)
18.07.2021 14:00 24,7 C 19,7 C 22,7 C 30,1 C 30,1 C 5,4 C 67 % 78 % 1017,4 hPa 0,0 l/m 2,1 km/h (1 Bft) W-SW 247 5 min 18,1 C 30,1 C 3,4 km/h (1 Bft)
18.07.2021 14:05 24,8 C 19,7 C 22,9 C 29,8 C 29,8 C 5,0 C 67 % 73 % 1017,4 hPa 0,0 l/m 2,7 km/h (1 Bft) S-SO 157 5 min 18,2 C 29,8 C 10,1 km/h (2 Bft)
18.07.2021 14:10 24,8 C 19,8 C 23,1 C 29,8 C 29,8 C 5,0 C 67 % 76 % 1017,4 hPa 0,0 l/m 2,3 km/h (1 Bft) S 180 5 min 18,2 C 29,8 C 1,9 km/h (1 Bft)
18.07.2021 14:15 25,3 C 19,8 C 23,2 C 30,8 C 30,8 C 5,5 C 66 % 76 % 1017,1 hPa 0,0 l/m 1,4 km/h (1 Bft) SW 225 5 min 18,5 C 30,8 C 5,0 km/h (1 Bft)
18.07.2021 14:20 25,1 C 19,8 C 23,1 C 29,9 C 29,9 C 4,8 C 65 % 76 % 1017,1 hPa 0,0 l/m 1,1 km/h (1 Bft) W 270 5 min 18,0 C 29,9 C 0,0 km/h (0 Bft)
18.07.2021 14:25 25,1 C 19,8 C 23,3 C 30,2 C 30,2 C 5,1 C 65 % 75 % 1017,1 hPa 0,0 l/m 1,9 km/h (1 Bft) S-SO 157 5 min 18,0 C 30,2 C 3,7 km/h (1 Bft)
18.07.2021 14:30 25,2 C 19,8 C 23,3 C 30,6 C 30,6 C 5,4 C 65 % 75 % 1017,1 hPa 0,0 l/m 2,1 km/h (1 Bft) W-SW 247 5 min 18,1 C 30,6 C 6,1 km/h (2 Bft)
18.07.2021 14:35 25,1 C 19,8 C 23,0 C 29,4 C 29,4 C 4,3 C 64 % 75 % 1016,9 hPa 0,0 l/m 1,9 km/h (1 Bft) S-SO 157 5 min 17,8 C 29,4 C 1,6 km/h (1 Bft)
18.07.2021 14:40 25,0 C 19,8 C 23,1 C 29,5 C 29,5 C 4,5 C 65 % 75 % 1016,9 hPa 0,0 l/m 1,9 km/h (1 Bft) SW 225 5 min 17,9 C 29,5 C 2,7 km/h (1 Bft)
18.07.2021 14:45 25,5 C 19,9 C 23,2 C 30,5 C 30,5 C 5,0 C 65 % 75 % 1016,9 hPa 0,0 l/m 1,3 km/h (1 Bft) NW 315 5 min 18,4 C 30,5 C 1,8 km/h (1 Bft)
18.07.2021 14:50 25,6 C 19,8 C 23,4 C 30,9 C 30,9 C 5,3 C 64 % 75 % 1016,9 hPa 0,0 l/m 1,6 km/h (1 Bft) SW 225 5 min 18,3 C 30,9 C 2,7 km/h (1 Bft)
18.07.2021 14:55 25,7 C 19,8 C 23,5 C 30,9 C 30,9 C 5,2 C 63 % 71 % 1016,7 hPa 0,0 l/m 1,9 km/h (1 Bft) SW 225 5 min 18,1 C 30,9 C 3,5 km/h (1 Bft)
18.07.2021 15:00 25,5 C 19,8 C 23,4 C 30,7 C 30,7 C 5,2 C 63 % 72 % 1016,7 hPa 0,0 l/m 2,1 km/h (1 Bft) W 270 5 min 17,9 C 30,7 C 4,2 km/h (1 Bft)
18.07.2021 15:05 25,2 C 19,9 C 23,3 C 29,5 C 29,5 C 4,3 C 63 % 70 % 1016,7 hPa 0,0 l/m 2,9 km/h (1 Bft) W-NW 292 5 min 17,6 C 29,5 C 3,2 km/h (1 Bft)
18.07.2021 15:10 25,1 C 19,9 C 23,4 C 29,2 C 29,2 C 4,1 C 62 % 68 % 1016,7 hPa 0,0 l/m 3,1 km/h (1 Bft) NW 315 5 min 17,3 C 29,2 C 7,7 km/h (2 Bft)
18.07.2021 15:15 25,0 C 19,8 C 23,7 C 30,0 C 30,0 C 5,0 C 62 % 72 % 1016,8 hPa 0,0 l/m 3,4 km/h (1 Bft) W 270 5 min 17,2 C 30,0 C 4,5 km/h (1 Bft)
18.07.2021 15:20 25,1 C 19,9 C 23,9 C 30,6 C 30,6 C 5,5 C 62 % 70 % 1016,8 hPa 0,0 l/m 3,1 km/h (1 Bft) W-SW 247 5 min 17,3 C 30,6 C 3,2 km/h (1 Bft)
18.07.2021 15:25 25,2 C 19,9 C 23,9 C 31,4 C 31,4 C 6,2 C 63 % 73 % 1016,8 hPa 0,0 l/m 2,3 km/h (1 Bft) W-SW 247 5 min 17,6 C 31,4 C 0,0 km/h (0 Bft)
18.07.2021 15:30 25,4 C 19,9 C 23,9 C 31,8 C 31,8 C 6,4 C 63 % 72 % 1016,8 hPa 0,0 l/m 1,6 km/h (1 Bft) S-SW 202 5 min 17,8 C 31,8 C 2,4 km/h (1 Bft)
18.07.2021 15:35 25,5 C 19,9 C 23,9 C 31,6 C 31,6 C 6,1 C 61 % 69 % 1016,4 hPa 0,0 l/m 1,9 km/h (1 Bft) W 270 5 min 17,4 C 31,6 C 2,3 km/h (1 Bft)
18.07.2021 15:40 25,4 C 19,9 C 23,9 C 31,7 C 31,7 C 6,3 C 61 % 67 % 1016,4 hPa 0,0 l/m 2,3 km/h (1 Bft) N-NO 22 5 min 17,3 C 31,7 C 2,4 km/h (1 Bft)
18.07.2021 15:45 25,4 C 19,9 C 24,1 C 31,6 C 31,6 C 6,2 C 61 % 65 % 1016,4 hPa 0,0 l/m 3,1 km/h (1 Bft) W-NW 292 5 min 17,3 C 31,6 C 3,4 km/h (1 Bft)
18.07.2021 15:50 25,5 C 19,9 C 24,1 C 31,6 C 31,6 C 6,1 C 60 % 67 % 1016,4 hPa 0,0 l/m 3,1 km/h (1 Bft) SW 225 5 min 17,2 C 31,6 C 5,3 km/h (1 Bft)
18.07.2021 15:55 25,4 C 20,0 C 24,3 C 31,4 C 31,4 C 6,0 C 61 % 65 % 1016,5 hPa 0,0 l/m 3,2 km/h (1 Bft) W-SW 247 5 min 17,3 C 31,4 C 11,1 km/h (2 Bft)
18.07.2021 16:00 25,5 C 20,0 C 24,3 C 31,6 C 31,6 C 6,1 C 61 % 64 % 1016,5 hPa 0,0 l/m 3,4 km/h (1 Bft) W-SW 247 5 min 17,4 C 31,6 C 5,1 km/h (1 Bft)
18.07.2021 16:05 25,5 C 20,0 C 24,3 C 31,7 C 31,7 C 6,2 C 61 % 65 % 1016,5 hPa 0,0 l/m 2,6 km/h (1 Bft) SW 225 5 min 17,4 C 31,7 C 14,5 km/h (3 Bft)
18.07.2021 16:10 25,6 C 20,0 C 24,4 C 31,6 C 31,6 C 6,0 C 59 % 64 % 1016,5 hPa 0,0 l/m 4,0 km/h (1 Bft) S-SW 202 5 min 17,0 C 31,6 C 7,9 km/h (2 Bft)
18.07.2021 16:15 25,6 C 20,0 C 24,4 C 31,4 C 31,4 C 5,8 C 59 % 62 % 1016,6 hPa 0,0 l/m 4,3 km/h (1 Bft) W-SW 247 5 min 17,0 C 31,4 C 4,8 km/h (1 Bft)
18.07.2021 16:20 25,6 C 20,0 C 24,5 C 31,6 C 31,6 C 6,0 C 59 % 64 % 1016,6 hPa 0,0 l/m 3,5 km/h (1 Bft) W-SW 247 5 min 17,0 C 31,6 C 4,0 km/h (1 Bft)
18.07.2021 16:25 25,6 C 20,0 C 24,5 C 31,6 C 31,6 C 6,0 C 58 % 64 % 1016,6 hPa 0,0 l/m 2,9 km/h (1 Bft) W-SW 247 5 min 16,7 C 31,6 C 3,5 km/h (1 Bft)
18.07.2021 16:30 25,7 C 20,1 C 24,5 C 31,6 C 31,6 C 5,9 C 58 % 63 % 1016,6 hPa 0,0 l/m 3,1 km/h (1 Bft) NW 315 5 min 16,8 C 31,6 C 2,1 km/h (1 Bft)
18.07.2021 16:35 25,8 C 20,1 C 24,7 C 31,8 C 31,8 C 6,0 C 58 % 63 % 1016,6 hPa 0,0 l/m 2,7 km/h (1 Bft) W-SW 247 5 min 16,9 C 31,8 C 2,1 km/h (1 Bft)
18.07.2021 16:40 25,9 C 20,1 C 24,7 C 32,0 C 32,0 C 6,1 C 59 % 63 % 1016,6 hPa 0,0 l/m 2,7 km/h (1 Bft) W 270 5 min 17,3 C 32,0 C 1,8 km/h (1 Bft)
18.07.2021 16:45 25,9 C 20,1 C 24,7 C 32,1 C 32,1 C 6,2 C 58 % 62 % 1016,6 hPa 0,0 l/m 2,6 km/h (1 Bft) S-SW 202 5 min 17,0 C 32,1 C 4,5 km/h (1 Bft)
18.07.2021 16:50 25,9 C 20,1 C 24,7 C 32,2 C 32,2 C 6,3 C 57 % 60 % 1016,6 hPa 0,0 l/m 2,7 km/h (1 Bft) W-SW 247 5 min 16,7 C 32,2 C 2,6 km/h (1 Bft)
18.07.2021 16:55 26,0 C 20,1 C 24,7 C 32,2 C 32,2 C 6,2 C 56 % 59 % 1016,6 hPa 0,0 l/m 2,9 km/h (1 Bft) N-NW 337 5 min 16,5 C 32,2 C 5,1 km/h (1 Bft)
18.07.2021 17:00 26,0 C 20,2 C 24,8 C 32,2 C 32,2 C 6,2 C 57 % 60 % 1016,6 hPa 0,0 l/m 2,7 km/h (1 Bft) O-NO 67 5 min 16,8 C 32,2 C 0,0 km/h (0 Bft)
18.07.2021 17:05 25,9 C 20,2 C 24,7 C 32,3 C 32,3 C 6,4 C 57 % 61 % 1016,6 hPa 0,0 l/m 2,1 km/h (1 Bft) NW 315 5 min 16,7 C 32,3 C 4,2 km/h (1 Bft)
18.07.2021 17:10 25,9 C 20,2 C 24,7 C 32,4 C 32,4 C 6,5 C 57 % 60 % 1016,6 hPa 0,0 l/m 1,4 km/h (1 Bft) W-NW 292 5 min 16,7 C 32,4 C 3,1 km/h (1 Bft)
18.07.2021 17:15 25,9 C 20,2 C 24,7 C 32,4 C 32,4 C 6,5 C 57 % 60 % 1016,4 hPa 0,0 l/m 1,4 km/h (1 Bft) NW 315 5 min 16,7 C 32,4 C 0,0 km/h (0 Bft)
18.07.2021 17:20 26,0 C 20,2 C 24,7 C 32,3 C 32,3 C 6,3 C 58 % 61 % 1016,4 hPa 0,0 l/m 1,1 km/h (1 Bft) NW 315 5 min 17,1 C 32,3 C 4,5 km/h (1 Bft)
18.07.2021 17:25 26,1 C 20,2 C 24,7 C 31,8 C 31,8 C 5,7 C 57 % 61 % 1016,4 hPa 0,0 l/m 1,8 km/h (1 Bft) N-NO 22 5 min 16,9 C 31,8 C 4,8 km/h (1 Bft)
18.07.2021 17:30 26,0 C 20,2 C 24,7 C 31,1 C 31,1 C 5,1 C 56 % 59 % 1016,4 hPa 0,0 l/m 2,9 km/h (1 Bft) SO 135 5 min 16,5 C 31,1 C 4,0 km/h (1 Bft)
18.07.2021 17:35 26,1 C 20,2 C 24,6 C 30,3 C 30,3 C 4,2 C 57 % 59 % 1016,4 hPa 0,0 l/m 3,4 km/h (1 Bft) N 360 5 min 16,9 C 30,3 C 3,4 km/h (1 Bft)
18.07.2021 17:40 26,1 C 20,2 C 24,5 C 29,5 C 29,5 C 3,4 C 56 % 59 % 1016,4 hPa 0,0 l/m 2,7 km/h (1 Bft) NW 315 5 min 16,6 C 29,5 C 2,7 km/h (1 Bft)
18.07.2021 17:45 25,8 C 20,3 C 24,4 C 29,1 C 29,1 C 3,3 C 56 % 59 % 1016,4 hPa 0,0 l/m 2,1 km/h (1 Bft) W-SW 247 5 min 16,3 C 29,1 C 2,7 km/h (1 Bft)
18.07.2021 17:50 25,8 C 20,3 C 24,5 C 28,9 C 28,9 C 3,1 C 57 % 61 % 1016,4 hPa 0,0 l/m 2,1 km/h (1 Bft) S-SW 202 0 min 16,6 C 28,9 C 2,4 km/h (1 Bft)
18.07.2021 17:55 25,8 C 20,3 C 24,4 C 28,5 C 28,5 C 2,7 C 58 % 62 % 1016,4 hPa 0,0 l/m 1,6 km/h (1 Bft) W-SW 247 0 min 16,9 C 28,5 C 0,0 km/h (0 Bft)
18.07.2021 18:00 25,9 C 20,3 C 24,4 C 28,2 C 28,2 C 2,3 C 58 % 64 % 1016,4 hPa 0,0 l/m 1,0 km/h (0 Bft) NW 315 0 min 17,0 C 28,2 C 1,9 km/h (1 Bft)
18.07.2021 18:05 26,0 C 20,3 C 24,5 C 28,0 C 28,0 C 2,0 C 58 % 64 % 1016,4 hPa 0,0 l/m 1,0 km/h (0 Bft) W-NW 292 0 min 17,1 C 28,0 C 2,1 km/h (1 Bft)
18.07.2021 18:10 26,1 C 20,3 C 24,5 C 27,9 C 27,9 C 1,8 C 58 % 63 % 1016,4 hPa 0,0 l/m 1,4 km/h (1 Bft) W 270 0 min 17,2 C 27,9 C 4,2 km/h (1 Bft)
18.07.2021 18:15 26,1 C 20,4 C 24,5 C 27,6 C 27,6 C 1,5 C 56 % 60 % 1016,3 hPa 0,0 l/m 2,4 km/h (1 Bft) W-NW 292 0 min 16,6 C 27,6 C 2,1 km/h (1 Bft)
18.07.2021 18:20 26,0 C 20,4 C 24,5 C 27,4 C 27,4 C 1,4 C 56 % 63 % 1016,3 hPa 0,0 l/m 2,4 km/h (1 Bft) S 180 0 min 16,5 C 27,4 C 2,9 km/h (1 Bft)
18.07.2021 18:25 26,0 C 20,4 C 24,5 C 27,8 C 27,8 C 1,8 C 57 % 64 % 1016,3 hPa 0,0 l/m 1,6 km/h (1 Bft) W 270 0 min 16,8 C 27,8 C 3,4 km/h (1 Bft)
18.07.2021 18:30 26,1 C 20,4 C 24,6 C 28,3 C 28,3 C 2,2 C 58 % 63 % 1016,3 hPa 0,0 l/m 1,6 km/h (1 Bft) W-NW 292 0 min 17,2 C 28,3 C 7,1 km/h (2 Bft)
18.07.2021 18:35 26,0 C 20,4 C 24,4 C 28,1 C 28,1 C 2,1 C 57 % 61 % 1016,3 hPa 0,0 l/m 2,4 km/h (1 Bft) W-SW 247 0 min 16,8 C 28,1 C 4,5 km/h (1 Bft)
18.07.2021 18:40 25,7 C 20,4 C 24,3 C 27,6 C 27,6 C 1,9 C 58 % 62 % 1016,3 hPa 0,0 l/m 2,7 km/h (1 Bft) N-NW 337 0 min 16,8 C 27,6 C 0,0 km/h (0 Bft)
18.07.2021 18:45 25,6 C 20,4 C 24,2 C 27,7 C 27,7 C 2,1 C 59 % 63 % 1016,3 hPa 0,0 l/m 2,1 km/h (1 Bft) W-NW 292 0 min 17,0 C 27,7 C 4,7 km/h (1 Bft)
18.07.2021 18:50 25,6 C 20,4 C 24,2 C 27,5 C 27,5 C 1,9 C 59 % 62 % 1016,3 hPa 0,0 l/m 2,1 km/h (1 Bft) NW 315 0 min 17,0 C 27,5 C 6,0 km/h (2 Bft)
18.07.2021 18:55 25,5 C 20,4 C 24,3 C 27,3 C 27,3 C 1,8 C 60 % 65 % 1016,2 hPa 0,0 l/m 2,7 km/h (1 Bft) NW 315 0 min 17,2 C 27,3 C 2,7 km/h (1 Bft)
18.07.2021 19:00 25,5 C 20,4 C 24,3 C 27,7 C 27,7 C 2,2 C 60 % 63 % 1016,2 hPa 0,0 l/m 2,7 km/h (1 Bft) W 270 0 min 17,2 C 27,7 C 4,8 km/h (1 Bft)
18.07.2021 19:05 25,5 C 20,5 C 24,3 C 28,1 C 28,1 C 2,6 C 60 % 62 % 1016,2 hPa 0,0 l/m 2,1 km/h (1 Bft) W 270 0 min 17,2 C 28,1 C 3,5 km/h (1 Bft)
18.07.2021 19:10 25,5 C 20,5 C 24,3 C 28,4 C 28,4 C 2,9 C 61 % 64 % 1016,2 hPa 0,0 l/m 1,8 km/h (1 Bft) W-NW 292 5 min 17,4 C 28,4 C 2,9 km/h (1 Bft)
18.07.2021 19:15 25,5 C 20,5 C 24,3 C 28,0 C 28,0 C 2,5 C 60 % 64 % 1017,1 hPa 0,0 l/m 2,6 km/h (1 Bft) NW 315 0 min 17,2 C 28,0 C 5,5 km/h (1 Bft)
18.07.2021 19:20 25,5 C 20,5 C 24,1 C 27,7 C 27,7 C 2,2 C 60 % 63 % 1017,1 hPa 0,0 l/m 2,7 km/h (1 Bft) W-NW 292 0 min 17,2 C 27,7 C 5,6 km/h (1 Bft)
18.07.2021 19:25 25,5 C 20,5 C 24,1 C 27,6 C 27,6 C 2,1 C 61 % 64 % 1017,1 hPa 0,0 l/m 2,3 km/h (1 Bft) NW 315 0 min 17,4 C 27,6 C 0,0 km/h (0 Bft)
18.07.2021 19:30 25,5 C 20,5 C 24,0 C 28,0 C 28,0 C 2,5 C 60 % 64 % 1017,1 hPa 0,0 l/m 1,6 km/h (1 Bft) W 270 5 min 17,2 C 28,0 C 6,3 km/h (2 Bft)
18.07.2021 19:35 25,2 C 20,5 C 23,9 C 28,4 C 28,4 C 3,2 C 60 % 63 % 1016,4 hPa 0,0 l/m 1,4 km/h (1 Bft) NO 45 5 min 16,9 C 28,4 C 3,5 km/h (1 Bft)
18.07.2021 19:40 25,3 C 20,5 C 23,9 C 28,4 C 28,4 C 3,1 C 60 % 64 % 1016,4 hPa 0,0 l/m 2,3 km/h (1 Bft) W 270 5 min 17,0 C 28,4 C 2,3 km/h (1 Bft)
18.07.2021 19:45 25,1 C 20,5 C 23,7 C 28,4 C 28,4 C 3,3 C 61 % 64 % 1016,4 hPa 0,0 l/m 2,1 km/h (1 Bft) NW 315 5 min 17,0 C 28,4 C 0,0 km/h (0 Bft)
18.07.2021 19:50 25,1 C 20,5 C 23,7 C 28,3 C 28,3 C 3,2 C 60 % 64 % 1016,4 hPa 0,0 l/m 1,8 km/h (1 Bft) NO 45 5 min 16,8 C 28,3 C 0,0 km/h (0 Bft)
18.07.2021 19:55 24,9 C 20,6 C 23,6 C 28,2 C 28,2 C 3,3 C 61 % 65 % 1016,3 hPa 0,0 l/m 0,8 km/h (0 Bft) S-SW 202 5 min 16,8 C 28,2 C 0,0 km/h (0 Bft)
18.07.2021 20:00 24,9 C 20,6 C 23,4 C 27,9 C 27,9 C 3,0 C 61 % 65 % 1016,3 hPa 0,0 l/m 0,6 km/h (0 Bft) W-SW 247 5 min 16,8 C 27,9 C 2,1 km/h (1 Bft)
18.07.2021 20:05 24,6 C 20,6 C 23,4 C 27,1 C 27,1 C 2,5 C 61 % 66 % 1016,3 hPa 0,0 l/m 1,3 km/h (1 Bft) NW 315 5 min 16,6 C 27,1 C 0,0 km/h (0 Bft)
18.07.2021 20:10 24,7 C 20,6 C 23,2 C 27,0 C 27,0 C 2,3 C 62 % 67 % 1016,3 hPa 0,0 l/m 1,6 km/h (1 Bft) NW 315 5 min 16,9 C 27,0 C 2,4 km/h (1 Bft)
18.07.2021 20:15 24,4 C 20,6 C 23,1 C 26,9 C 26,9 C 2,5 C 62 % 68 % 1016,5 hPa 0,0 l/m 0,3 km/h (0 Bft) W 270 5 min 16,6 C 26,9 C 0,0 km/h (0 Bft)
18.07.2021 20:20 24,3 C 20,6 C 23,0 C 26,8 C 26,8 C 2,5 C 62 % 67 % 1016,5 hPa 0,0 l/m 1,1 km/h (1 Bft) NW 315 5 min 16,5 C 26,8 C 2,1 km/h (1 Bft)
18.07.2021 20:25 24,2 C 20,6 C 22,9 C 26,0 C 26,0 C 1,8 C 62 % 67 % 1016,5 hPa 0,0 l/m 1,4 km/h (1 Bft) W 270 5 min 16,4 C 26,0 C 3,1 km/h (1 Bft)
18.07.2021 20:30 24,0 C 20,6 C 22,7 C 25,7 C 25,7 C 1,7 C 63 % 68 % 1016,5 hPa 0,0 l/m 1,1 km/h (1 Bft) NW 315 5 min 16,5 C 25,7 C 0,0 km/h (0 Bft)
18.07.2021 20:35 23,9 C 20,6 C 22,6 C 25,3 C 25,3 C 1,4 C 63 % 67 % 1016,4 hPa 0,0 l/m 0,3 km/h (0 Bft) O-NO 67 5 min 16,4 C 25,3 C 0,0 km/h (0 Bft)
18.07.2021 20:40 23,9 C 20,6 C 22,5 C 24,9 C 24,9 C 1,0 C 63 % 68 % 1016,4 hPa 0,0 l/m 0,3 km/h (0 Bft) W 270 5 min 16,4 C 24,9 C 3,2 km/h (1 Bft)
18.07.2021 20:45 23,6 C 20,7 C 22,3 C 24,3 C 24,3 C 0,7 C 64 % 68 % 1016,4 hPa 0,0 l/m 0,6 km/h (0 Bft) W 270 5 min 16,4 C 24,3 C 2,4 km/h (1 Bft)
18.07.2021 20:50 23,5 C 20,7 C 22,1 C 23,7 C 23,7 C 0,2 C 64 % 69 % 1016,4 hPa 0,0 l/m 0,5 km/h (0 Bft) W-NW 292 0 min 16,3 C 23,7 C 0,0 km/h (0 Bft)
18.07.2021 20:55 23,3 C 20,7 C 21,8 C 23,2 C 22,9 C 0,0 C 66 % 73 % 1016,8 hPa 0,0 l/m 0,0 km/h (0 Bft) W-NW 292 0 min 16,6 C 22,9 C 0,0 km/h (0 Bft)
18.07.2021 21:00 23,2 C 20,8 C 21,5 C 22,9 C 22,4 C 0,0 C 66 % 73 % 1016,8 hPa 0,0 l/m 0,0 km/h (0 Bft) W-NW 292 0 min 16,5 C 22,4 C 0,0 km/h (0 Bft)
18.07.2021 21:05 22,9 C 20,8 C 21,1 C 22,5 C 21,7 C 0,0 C 67 % 75 % 1016,8 hPa 0,0 l/m 0,0 km/h (0 Bft) W-NW 292 0 min 16,4 C 21,7 C 0,0 km/h (0 Bft)
18.07.2021 21:10 22,7 C 20,8 C 20,9 C 22,2 C 21,2 C 0,0 C 68 % 76 % 1016,8 hPa 0,0 l/m 0,0 km/h (0 Bft) W-NW 292 0 min 16,5 C 21,2 C 0,0 km/h (0 Bft)
18.07.2021 21:15 22,4 C 20,8 C 20,5 C 21,8 C 20,7 C 0,0 C 69 % 77 % 1016,7 hPa 0,0 l/m 0,0 km/h (0 Bft) W-NW 292 0 min 16,4 C 20,7 C 0,0 km/h (0 Bft)
18.07.2021 21:20 22,2 C 20,9 C 20,3 C 21,6 C 20,3 C 0,0 C 69 % 77 % 1016,7 hPa 0,0 l/m 0,0 km/h (0 Bft) W-NW 292 0 min 16,2 C 20,3 C 0,0 km/h (0 Bft)
18.07.2021 21:25 21,8 C 20,9 C 20,1 C 21,1 C 19,8 C 0,0 C 70 % 78 % 1016,7 hPa 0,0 l/m 0,0 km/h (0 Bft) W-NW 292 0 min 16,1 C 19,8 C 0,0 km/h (0 Bft)
18.07.2021 21:30 21,6 C 20,9 C 19,9 C 20,9 C 19,6 C 0,0 C 71 % 79 % 1016,7 hPa 0,0 l/m 0,0 km/h (0 Bft) W-NW 292 0 min 16,1 C 19,6 C 0,0 km/h (0 Bft)
18.07.2021 21:35 21,3 C 20,9 C 19,7 C 20,6 C 19,3 C 0,0 C 72 % 80 % 1016,6 hPa 0,0 l/m 0,0 km/h (0 Bft) W-NW 292 0 min 16,0 C 19,3 C 0,0 km/h (0 Bft)
18.07.2021 21:40 21,0 C 20,9 C 19,6 C 20,3 C 19,0 C 0,0 C 72 % 80 % 1016,6 hPa 0,0 l/m 0,0 km/h (0 Bft) W-NW 292 0 min 15,8 C 19,0 C 0,0 km/h (0 Bft)
18.07.2021 21:45 20,9 C 20,9 C 19,4 C 20,2 C 18,7 C 0,0 C 73 % 81 % 1016,6 hPa 0,0 l/m 0,0 km/h (0 Bft) W-NW 292 0 min 15,9 C 18,7 C 0,0 km/h (0 Bft)
18.07.2021 21:50 20,7 C 21,0 C 19,3 C 20,0 C 18,6 C 0,0 C 74 % 82 % 1016,6 hPa 0,0 l/m 0,0 km/h (0 Bft) W-NW 292 0 min 15,9 C 18,6 C 0,0 km/h (0 Bft)
18.07.2021 21:55 20,4 C 21,1 C 19,0 C 19,7 C 18,3 C 0,0 C 75 % 82 % 1016,6 hPa 0,0 l/m 0,0 km/h (0 Bft) W-NW 292 0 min 15,8 C 18,3 C 0,0 km/h (0 Bft)
18.07.2021 22:00 20,3 C 21,1 C 18,9 C 19,6 C 18,2 C 0,0 C 75 % 83 % 1016,6 hPa 0,0 l/m 0,0 km/h (0 Bft) W-NW 292 0 min 15,7 C 18,2 C 0,0 km/h (0 Bft)
18.07.2021 22:05 20,0 C 21,1 C 18,8 C 19,3 C 17,9 C 0,0 C 76 % 84 % 1016,6 hPa 0,0 l/m 0,0 km/h (0 Bft) W-NW 292 0 min 15,6 C 17,9 C 0,0 km/h (0 Bft)
18.07.2021 22:10 19,9 C 21,1 C 18,7 C 19,2 C 17,7 C 0,0 C 76 % 84 % 1016,6 hPa 0,0 l/m 0,0 km/h (0 Bft) W-NW 292 0 min 15,5 C 17,7 C 0,0 km/h (0 Bft)
18.07.2021 22:15 19,7 C 21,1 C 18,5 C 19,0 C 17,5 C 0,0 C 77 % 84 % 1016,7 hPa 0,0 l/m 0,0 km/h (0 Bft) W-NW 292 0 min 15,5 C 17,5 C 0,0 km/h (0 Bft)
18.07.2021 22:20 19,5 C 21,1 C 18,4 C 18,8 C 17,4 C 0,0 C 77 % 85 % 1016,7 hPa 0,0 l/m 0,0 km/h (0 Bft) W-NW 292 0 min 15,4 C 17,4 C 0,0 km/h (0 Bft)
18.07.2021 22:25 19,3 C 21,1 C 18,3 C 18,6 C 17,3 C 0,0 C 78 % 85 % 1016,7 hPa 0,0 l/m 0,0 km/h (0 Bft) W-NW 292 0 min 15,4 C 17,3 C 0,0 km/h (0 Bft)
18.07.2021 22:30 19,3 C 21,2 C 18,2 C 18,6 C 17,3 C 0,0 C 78 % 85 % 1016,7 hPa 0,0 l/m 0,0 km/h (0 Bft) W-NW 292 0 min 15,4 C 17,3 C 0,0 km/h (0 Bft)
18.07.2021 22:35 19,1 C 21,2 C 18,1 C 18,5 C 17,2 C 0,0 C 79 % 86 % 1016,8 hPa 0,0 l/m 0,0 km/h (0 Bft) W-NW 292 0 min 15,4 C 17,2 C 0,0 km/h (0 Bft)
18.07.2021 22:40 18,9 C 21,2 C 18,0 C 18,3 C 17,2 C 0,0 C 80 % 86 % 1016,8 hPa 0,0 l/m 0,0 km/h (0 Bft) W-NW 292 0 min 15,4 C 17,2 C 0,0 km/h (0 Bft)
18.07.2021 22:45 18,7 C 21,2 C 17,9 C 18,1 C 17,0 C 0,0 C 80 % 86 % 1016,8 hPa 0,0 l/m 0,0 km/h (0 Bft) W-NW 292 0 min 15,2 C 17,0 C 0,0 km/h (0 Bft)
18.07.2021 22:50 18,7 C 21,2 C 17,7 C 18,1 C 17,0 C 0,0 C 80 % 87 % 1016,8 hPa 0,0 l/m 0,0 km/h (0 Bft) W-NW 292 0 min 15,2 C 17,0 C 0,0 km/h (0 Bft)
18.07.2021 22:55 18,4 C 21,2 C 17,6 C 17,9 C 16,8 C 0,0 C 81 % 87 % 1016,2 hPa 0,0 l/m 0,0 km/h (0 Bft) W-NW 292 0 min 15,1 C 16,8 C 0,0 km/h (0 Bft)
18.07.2021 23:00 18,4 C 21,2 C 17,6 C 17,9 C 16,8 C 0,0 C 81 % 87 % 1016,2 hPa 0,0 l/m 0,0 km/h (0 Bft) W-NW 292 0 min 15,1 C 16,8 C 0,0 km/h (0 Bft)
18.07.2021 23:05 18,3 C 21,2 C 17,5 C 17,8 C 16,7 C 0,0 C 82 % 87 % 1016,2 hPa 0,0 l/m 0,0 km/h (0 Bft) W-NW 292 0 min 15,2 C 16,7 C 0,0 km/h (0 Bft)
18.07.2021 23:10 18,2 C 21,2 C 17,4 C 17,7 C 16,6 C 0,0 C 82 % 88 % 1016,2 hPa 0,0 l/m 0,0 km/h (0 Bft) W-NW 292 0 min 15,1 C 16,6 C 0,0 km/h (0 Bft)
18.07.2021 23:15 18,1 C 21,2 C 17,3 C 17,5 C 16,4 C 0,0 C 83 % 88 % 1016,4 hPa 0,0 l/m 0,0 km/h (0 Bft) W-NW 292 0 min 15,2 C 16,4 C 0,0 km/h (0 Bft)
18.07.2021 23:20 17,9 C 21,2 C 17,2 C 17,4 C 16,3 C 0,0 C 83 % 88 % 1016,4 hPa 0,0 l/m 0,0 km/h (0 Bft) W-NW 292 0 min 15,0 C 16,3 C 0,0 km/h (0 Bft)
18.07.2021 23:25 17,8 C 21,2 C 17,2 C 17,3 C 16,3 C 0,0 C 83 % 88 % 1016,4 hPa 0,0 l/m 0,0 km/h (0 Bft) W-NW 292 0 min 14,9 C 16,3 C 0,0 km/h (0 Bft)
18.07.2021 23:30 17,7 C 21,2 C 17,1 C 17,2 C 16,3 C 0,0 C 83 % 88 % 1016,4 hPa 0,0 l/m 0,0 km/h (0 Bft) W-NW 292 0 min 14,8 C 16,3 C 0,0 km/h (0 Bft)
18.07.2021 23:35 17,6 C 21,2 C 17,1 C 17,1 C 16,2 C 0,0 C 84 % 89 % 1016,4 hPa 0,0 l/m 0,0 km/h (0 Bft) W-NW 292 0 min 14,9 C 16,2 C 0,0 km/h (0 Bft)
18.07.2021 23:40 17,6 C 21,2 C 16,9 C 17,1 C 16,2 C 0,0 C 84 % 89 % 1016,4 hPa 0,0 l/m 0,0 km/h (0 Bft) W-NW 292 0 min 14,9 C 16,2 C 0,0 km/h (0 Bft)
18.07.2021 23:45 17,4 C 21,2 C 16,9 C 16,9 C 16,0 C 0,0 C 84 % 89 % 1016,4 hPa 0,0 l/m 0,0 km/h (0 Bft) W-NW 292 0 min 14,7 C 16,0 C 0,0 km/h (0 Bft)
18.07.2021 23:50 17,5 C 21,2 C 16,9 C 17,0 C 16,0 C 0,0 C 84 % 89 % 1016,4 hPa 0,0 l/m 0,0 km/h (0 Bft) W-NW 292 0 min 14,8 C 16,0 C 0,0 km/h (0 Bft)
18.07.2021 23:55 17,3 C 21,2 C 16,8 C 16,9 C 16,0 C 0,0 C 84 % 89 % 1016,2 hPa 0,0 l/m 0,0 km/h (0 Bft) W-NW 292 0 min 14,6 C 16,0 C 0,0 km/h (0 Bft)
_ Min-Zeit 04:09 12:05 03:09 03:04 03:04 00:04 16:55 16:55 00:04 - 00:04 - - - 04:09 03:04 00:04
Minimum _ 14,0 C 19,6 C 15,1 C 14,7 C 14,7 C 0,0 C 56 % 59 % 1016,0 hPa - 0,0 km/h (0 Bft) - - - 11,9 C 14,7 C 0,0 km/h (0 Bft)
_ Max-Zeit 17:25 00:04 17:00 17:10 17:10 12:10 01:34 00:54 11:15 00:04 16:15 - - 09:13 13:30 17:10 16:05
Maximum _ 26,1 C 21,7 C 24,8 C 32,4 C 32,4 C 7,0 C 87 % 94 % 1018,2 hPa 0,0 l/m 4,3 km/h
W-SW (1 Bft)
- - 60 min 18,5 C 32,4 C 14,5 km/h
SW (3 Bft)
Durchschnitt _ 19,8 C 20,6 C 19,5 C 22,4 C 22,2 C 2,8 C 77 % 83 % 1017,0 hPa #0,0 l/m 0,9 km/h (0 Bft) W-SW - #13:07 h 15,3 C 22,2 C 1,5 km/h (1 Bft)
2021 www.wetterstation-wechselburg.de